TimeCST,TemperatureF,Dew PointF,Humidity,Sea Level PressureIn,VisibilityMPH,Wind Direction,Wind SpeedMPH,Gust SpeedMPH,PrecipitationIn,Events,Conditions,WindDirDegrees,DateUTC
12:13 AM,-11.2,-20.2,64,30.61,10.0,North,6.9,-,N/A,,Clear,350,2013-01-24 06:13:00
12:34 AM,-11.2,-20.2,64,30.60,10.0,Calm,Calm,-,N/A,,Clear,0,2013-01-24 06:34:00
12:54 AM,-11.2,-18.4,70,30.60,10.0,North,5.8,-,N/A,,Clear,350,2013-01-24 06:54:00
1:13 AM,-11.2,-18.4,70,30.61,10.0,Calm,Calm,-,N/A,,Clear,0,2013-01-24 07:13:00
1:34 AM,-11.2,-18.4,70,30.61,10.0,Calm,Calm,-,N/A,,Clear,0,2013-01-24 07:34:00
1:54 AM,-11.2,-18.4,70,30.61,10.0,Calm,Calm,-,N/A,,Clear,0,2013-01-24 07:54:00
2:13 AM,-11.2,-18.4,70,30.62,10.0,NNW,3.5,-,N/A,,Clear,330,2013-01-24 08:13:00
2:34 AM,-9.4,-18.4,65,30.63,10.0,Calm,Calm,-,N/A,,Clear,0,2013-01-24 08:34:00
2:53 AM,-9.4,-18.4,65,30.63,10.0,Calm,Calm,-,N/A,,Clear,0,2013-01-24 08:53:00
3:14 AM,-9.4,-18.4,65,30.60,10.0,ENE,3.5,-,N/A,,Clear,60,2013-01-24 09:14:00
3:34 AM,-9.4,-18.4,65,30.59,10.0,ENE,4.6,-,N/A,,Clear,70,2013-01-24 09:34:00
3:53 AM,-9.4,-18.4,65,30.59,10.0,ENE,3.5,-,N/A,,Clear,70,2013-01-24 09:53:00
4:14 AM,-9.4,-18.4,65,30.58,10.0,Calm,Calm,-,N/A,,Clear,0,2013-01-24 10:14:00
4:34 AM,-9.4,-18.4,65,30.58,10.0,ESE,6.9,-,N/A,,Clear,110,2013-01-24 10:34:00
4:53 AM,-9.4,-16.6,71,30.57,10.0,SE,5.8,-,N/A,,Clear,140,2013-01-24 10:53:00
5:14 AM,-9.4,-16.6,71,30.56,10.0,ESE,6.9,-,N/A,,Clear,120,2013-01-24 11:14:00
5:33 AM,-7.6,-16.6,65,30.57,10.0,SSE,4.6,-,N/A,,Scattered Clouds,150,2013-01-24 11:33:00
5:54 AM,-7.6,-16.6,65,30.58,10.0,South,4.6,-,N/A,,Overcast,170,2013-01-24 11:54:00
6:14 AM,-7.6,-16.6,65,30.58,10.0,South,5.8,-,N/A,,Scattered Clouds,170,2013-01-24 12:14:00
6:33 AM,-7.6,-16.6,65,30.58,10.0,SSE,5.8,-,N/A,,Clear,150,2013-01-24 12:33:00
6:54 AM,-7.6,-16.6,65,30.58,10.0,SSE,4.6,-,N/A,,Clear,150,2013-01-24 12:54:00
7:14 AM,-7.6,-16.6,65,30.56,10.0,SE,9.2,-,N/A,,Scattered Clouds,130,2013-01-24 13:14:00
7:33 AM,-7.6,-14.8,71,30.53,10.0,SE,8.1,-,N/A,,Clear,130,2013-01-24 13:33:00
7:54 AM,-7.6,-14.8,71,30.50,10.0,SE,10.4,-,N/A,,Clear,130,2013-01-24 13:54:00
8:14 AM,-7.6,-14.8,71,30.50,10.0,SE,13.8,-,N/A,,Scattered Clouds,130,2013-01-24 14:14:00
8:34 AM,-5.8,-14.8,65,30.49,10.0,SE,15.0,-,N/A,,Scattered Clouds,140,2013-01-24 14:34:00
8:54 AM,-5.8,-14.8,65,30.48,10.0,SE,13.8,17.3,N/A,,Clear,140,2013-01-24 14:54:00
9:13 AM,-5.8,-14.8,65,30.48,10.0,SSE,10.4,19.6,N/A,,Clear,150,2013-01-24 15:13:00
9:34 AM,-5.8,-13.0,71,30.49,10.0,SSE,12.7,18.4,N/A,,Clear,150,2013-01-24 15:34:00
9:53 AM,-5.8,-13.0,71,30.48,10.0,SSE,11.5,-,N/A,,Clear,150,2013-01-24 15:53:00
10:14 AM,-4.0,-13.0,65,30.48,10.0,SSE,10.4,-,N/A,,Clear,150,2013-01-24 16:14:00
10:34 AM,-4.0,-11.2,71,30.47,10.0,SSE,12.7,-,N/A,,Clear,150,2013-01-24 16:34:00
10:54 AM,-2.2,-11.2,66,30.46,10.0,SSE,15.0,19.6,N/A,,Clear,160,2013-01-24 16:54:00
11:14 AM,-2.2,-9.4,71,30.44,10.0,SE,18.4,21.9,N/A,,Clear,140,2013-01-24 17:14:00
11:34 AM,-2.2,-9.4,71,30.43,10.0,SE,18.4,23.0,N/A,,Clear,140,2013-01-24 17:34:00
11:53 AM,-0.4,-9.4,66,30.41,10.0,SE,18.4,-,N/A,,Clear,140,2013-01-24 17:53:00
12:14 PM,-0.4,-9.4,66,30.40,10.0,SSE,12.7,20.7,N/A,,Clear,150,2013-01-24 18:14:00
12:34 PM,1.4,-7.6,66,30.39,10.0,SSE,15.0,20.7,N/A,,Clear,160,2013-01-24 18:34:00
12:54 PM,1.4,-7.6,66,30.36,10.0,SSE,16.1,23.0,N/A,,Clear,150,2013-01-24 18:54:00
1:14 PM,1.4,-5.8,72,30.34,10.0,SE,18.4,25.3,N/A,,Clear,140,2013-01-24 19:14:00
1:34 PM,3.2,-5.8,66,30.32,10.0,SE,17.3,25.3,N/A,,Clear,140,2013-01-24 19:34:00
1:54 PM,3.2,-5.8,66,30.29,10.0,SE,21.9,-,N/A,,Clear,130,2013-01-24 19:54:00
2:13 PM,3.2,-5.8,66,30.28,10.0,SE,21.9,26.5,N/A,,Clear,140,2013-01-24 20:13:00
2:34 PM,5.0,-4.0,66,30.26,10.0,SE,21.9,28.8,N/A,,Clear,140,2013-01-24 20:34:00
2:53 PM,5.0,-2.2,72,30.23,10.0,SE,21.9,26.5,N/A,,Scattered Clouds,140,2013-01-24 20:53:00
3:14 PM,6.8,-2.2,67,30.24,10.0,SE,18.4,26.5,N/A,,Clear,140,2013-01-24 21:14:00
3:34 PM,6.8,-2.2,67,30.22,10.0,SE,17.3,21.9,N/A,,Scattered Clouds,140,2013-01-24 21:34:00
3:53 PM,8.6,-2.2,62,30.20,10.0,SE,16.1,27.6,N/A,,Mostly Cloudy,140,2013-01-24 21:53:00
4:14 PM,8.6,-2.2,62,30.20,10.0,SSE,15.0,25.3,N/A,,Overcast,150,2013-01-24 22:14:00
4:34 PM,8.6,-0.4,67,30.18,10.0,SE,21.9,25.3,N/A,,Scattered Clouds,140,2013-01-24 22:34:00
4:54 PM,8.6,-0.4,67,30.17,10.0,SE,20.7,27.6,N/A,,Clear,140,2013-01-24 22:54:00
5:14 PM,8.6,-0.4,67,30.15,10.0,SE,20.7,29.9,N/A,,Clear,140,2013-01-24 23:14:00
5:33 PM,8.6,-0.4,67,30.14,10.0,SSE,17.3,29.9,N/A,,Clear,150,2013-01-24 23:33:00
5:54 PM,10.4,-0.4,62,30.13,10.0,SSE,15.0,24.2,N/A,,Clear,150,2013-01-24 23:54:00
6:13 PM,10.4,-0.4,62,30.15,10.0,SSE,13.8,24.2,N/A,,Scattered Clouds,160,2013-01-25 00:13:00
6:34 PM,10.4,1.4,67,30.12,10.0,SSE,15.0,21.9,N/A,,Scattered Clouds,160,2013-01-25 00:34:00
6:53 PM,10.4,1.4,67,30.12,10.0,South,15.0,20.7,N/A,,Mostly Cloudy,170,2013-01-25 00:53:00
7:14 PM,10.4,1.4,67,30.12,10.0,SSE,13.8,19.6,N/A,,Mostly Cloudy,160,2013-01-25 01:14:00
7:34 PM,10.4,1.4,67,30.09,10.0,SSE,15.0,25.3,N/A,,Scattered Clouds,160,2013-01-25 01:34:00
7:54 PM,10.4,3.2,73,30.09,10.0,South,10.4,19.6,N/A,,Clear,170,2013-01-25 01:54:00
8:13 PM,10.4,3.2,73,30.10,10.0,South,10.4,-,N/A,,Clear,180,2013-01-25 02:13:00
8:34 PM,12.2,1.4,62,30.12,10.0,South,9.2,-,N/A,,Scattered Clouds,180,2013-01-25 02:34:00
8:54 PM,12.2,1.4,62,30.11,10.0,South,9.2,-,N/A,,Mostly Cloudy,180,2013-01-25 02:54:00
9:14 PM,12.2,3.2,67,30.11,10.0,South,8.1,-,N/A,,Overcast,180,2013-01-25 03:14:00
9:34 PM,12.2,3.2,67,30.10,10.0,South,10.4,-,N/A,,Overcast,180,2013-01-25 03:34:00
9:54 PM,12.2,3.2,67,30.06,10.0,South,15.0,-,N/A,,Overcast,180,2013-01-25 03:54:00
10:14 PM,12.2,3.2,67,30.06,10.0,South,11.5,-,N/A,,Mostly Cloudy,170,2013-01-25 04:14:00
10:34 PM,10.4,3.2,73,30.06,10.0,South,10.4,-,N/A,,Clear,180,2013-01-25 04:34:00
10:54 PM,10.4,3.2,73,30.05,10.0,South,10.4,-,N/A,,Mostly Cloudy,180,2013-01-25 04:54:00
11:14 PM,12.2,3.2,67,30.05,10.0,South,9.2,-,N/A,,Mostly Cloudy,180,2013-01-25 05:14:00
11:33 PM,10.4,3.2,73,30.05,10.0,South,10.4,-,N/A,,Scattered Clouds,180,2013-01-25 05:33:00
11:54 PM,10.4,3.2,73,30.04,10.0,South,9.2,-,N/A,,Clear,180,2013-01-25 05:54:00